Regional Weather Roundup
Issued by NWS Newport/Morehead, NC

Current Version | Previous Version | Graphics & Text | Print | Product List | Glossary Off
Versions: 1 2 3 4 5 6 7 8 9 10 11 12 13 14 15 16 17 18 19 20 21 22 23 24 25 26 27 28 29 30 31 32 33 34 35 36 37 38 39 40 41 42 43 44 45 46 47 48 49 50

558
ASUS42 KMHX 221014
RWRMHX
WEATHER ROUNDUP FOR EASTERN NORTH CAROLINA
NATIONAL WEATHER SERVICE NEWPORT/MOREHEAD CITY NC
600 AM EDT MON MAY 22 2017

NOTE: "FAIR" INDICATES FEW OR NO CLOUDS BELOW 12,000 FEET
WITH NO SIGNIFICANT WEATHER AND/OR OBSTRUCTIONS TO VISIBILITY

NCZ015>017-031-032-045>047-102-103-221100-
NORTH COAST

CITY           SKY/WX    TMP DP  RH WIND       PRES   REMARKS
EDENTON        CLOUDY    66  63  90 CALM      30.08F
ELIZABETH CITY CLOUDY    71  70  96 S6        30.08F
KITTY HAWK     NOT AVBL
MANTEO         CLOUDY    71  65  83 S8        30.09F

$$

NCZ045>047-081-094-103-104-221100-
CENTRAL COAST

CITY           SKY/WX    TMP DP  RH WIND       PRES   REMARKS
FRISCO         LGT RAIN  73  69  87 S7        30.09R

$$

NCZ095-097-098-100-101-221100-
SOUTHERN COAST

CITY           SKY/WX    TMP DP  RH WIND       PRES   REMARKS
BEAUFORT       CLOUDY    72  71  97 CALM      30.08S
CEDAR ISLAND   NOT AVBL
JACKSONVILLE   CLOUDY    70  69  97 S3        30.07S
PINEY ISLAND   CLOUDY   N/A N/A N/A CALM      30.08R HAZE
WILMINGTON     MOCLDY    71  69  93 S5        30.07S


$$

NCZ011>013-027>030-043-044-078>080-089-090>093-098-221100-
COASTAL PLAIN

CITY           SKY/WX    TMP DP  RH WIND       PRES   REMARKS
AHOSKIE          N/A     63  62  97 CALM      30.08F FOG
CLINTON        PTCLDY    68  68 100 CALM      30.07S
ELIZABETHTOWN  CLOUDY    70  70 100 CALM      30.07R FOG
GOLDSBORO      MOCLDY    67  67 100 CALM      30.06R
GREENVILLE     CLOUDY    66  66 100 CALM      30.09S
HAVELOCK       CLOUDY    70  67  90 S3        30.09S
KENANSVILLE    MOCLDY    66  66 100 CALM      30.07S FOG
KINSTON        CLOUDY    68  67  94 CALM      30.08S
NEW BERN       CLOUDY    69  69 100 CALM      30.09R
RICHLANDS      PTCLDY    68  67  96 S3        30.08S
ROCKY MOUNT    CLOUDY    65  65 100 CALM      30.07S
WASHINGTON     CLOUDY    65  65  97 CALM      30.08S FOG
WHITEVILLE     CLOUDY    69  68  96 CALM      30.06S

$$

AMZ130-135-150-152-154-156-158-170-250-252-270-ANZ085-086-088-633-658-670-221100-
MARINE OBSERVATIONS

STATION/POSITION TIME  TEMP    WIND        PRES    WAVE   SWELL
                       AIR SEA DIR/SP/G            HT/PER HT/PER
                 (UTC) (F)     (DEG/KT/KT) (MB)    (FT/S) (FT/S)
CHESAPEAKE LIGHT NOT AVBL
64 E VA BEACH    0950   69 69  150/ 10/ 12 1019.7    6/10   5/10
DUCK             0942   67 66  140/  9/ 10 1018.4
2 E DUCK         1000      65                N/A     4/ 7   2/11
OREGON INLET     0942   68 69  120/  4/  6 1018.8
13E OREGON INLT  0948      65                N/A     5/10   5/10
HATTERAS CG      0942   72 74  180/  5/ 10 1018.5
DIAMOND BUOY     0950   73 78  230/ 10/ 14 1018.8    5/ 8   3/ 8
CAPE LOOKOUT     1000   72     200/  1/  2 1018.4
BEAUFORT LAB     0942   73 73  200/  4/  5 1017.7
30 SE NEW RVR IN 0908   75 76  230/  4/  6 1018.4
30 SE NEW RVR IN 0943      76                N/A     2/ 8
27 SE WRIGHTSVLE 0908   75 75  200/  8/ 14 1017.6
5 SE WRIGHTSVLE  0908   76 75  200/ 10/ 16 1018.2
225 S CAPE HAT   0950   75 77  220/ 10/ 12 1019.7    3/ 8   3/ 8
41 SE CHARLESTON 1000   77 78  200/ 14/ 17 1018.3

$$




USA.gov is the U.S. government's official web portal to all federal, state and local government web resources and services.